This is the latest recevied weather packets stored in our database for station/object N5JXS. If no packets are shown the sender has not sent any weather packets the latest 10 day(s).
| Time | Temp. | Humidity | Pressure | Rain* | Wind** | Luminosity | Snow |
|---|---|---|---|---|---|---|---|
| 1777853487 | 16.11° C | 24% | 1016.6 hPa | 0 mm | - | 52 W/m² | - |
| 1777853185 | 16.67° C | 24% | 1016.6 hPa | 0 mm | - | 53 W/m² | - |
| 1777852882 | 16.67° C | 23% | 1016.5 hPa | 0 mm | - | 57 W/m² | - |
| 1777852580 | 16.67° C | 23% | 1016.8 hPa | 0 mm | - | 69 W/m² | - |
| 1777852276 | 16.67° C | 24% | 1017 hPa | 0 mm | - | 82 W/m² | - |
| 1777851975 | 16.67° C | 22% | 1017 hPa | 0 mm | - | 78 W/m² | - |
| 1777851672 | 16.67° C | 22% | 1016.5 hPa | 0 mm | - | 73 W/m² | - |
| 1777851369 | 16.67° C | 23% | 1016.9 hPa | 0 mm | - | 85 W/m² | - |
| 1777851065 | 16.67° C | 23% | 1016.9 hPa | 0 mm | - | 98 W/m² | - |
| 1777850762 | 16.67° C | 21% | 1017 hPa | 0 mm | - | 92 W/m² | - |
| 1777850459 | 16.67° C | 21% | 1017 hPa | 0 mm | - | 108 W/m² | - |
| 1777850157 | 16.67° C | 21% | 1017.1 hPa | 0 mm | - | 112 W/m² | - |
| 1777849854 | 16.67° C | 21% | 1017 hPa | 0 mm | - | 73 W/m² | - |
| 1777849550 | 16.67° C | 21% | 1016.8 hPa | 0 mm | - | 66 W/m² | - |
| 1777849248 | 16.67° C | 20% | 1017 hPa | 0 mm | - | 68 W/m² | - |
| 1777848944 | 16.67° C | 21% | 1016.8 hPa | 0 mm | - | 77 W/m² | - |
| 1777848639 | 16.67° C | 21% | 1016.9 hPa | 0 mm | - | 91 W/m² | - |
| 1777848337 | 16.67° C | 21% | 1016.9 hPa | 0 mm | - | 116 W/m² | - |
| 1777848035 | 16.67° C | 21% | 1017 hPa | 0 mm | - | 112 W/m² | - |
| 1777847733 | 16.67° C | 21% | 1017.1 hPa | 0 mm | - | 98 W/m² | - |
| 1777847428 | 16.67° C | 22% | 1017 hPa | 0 mm | - | 107 W/m² | - |
| 1777847126 | 16.67° C | 22% | 1017.3 hPa | 0 mm | - | 121 W/m² | - |
| 1777846824 | 16.67° C | 22% | 1017 hPa | 0 mm | - | 133 W/m² | - |
| 1777846522 | 16.67° C | 23% | 1017.3 hPa | 0 mm | - | 127 W/m² | - |
| 1777846219 | 16.67° C | 22% | 1017.6 hPa | 0 mm | - | 107 W/m² | - |
* Rain latest hour (hover to see other rain measurements)
** Current wind speed in m/s (hover to see current wind gust speed)